Location: Kernascl�den
(48.0062°N, 3.3198°W)
Time: 16:48:56
(UTC+00:00)

Cosmos 1818 - Pass Details

Date: 21 January 2021
Orbit: 773 x 800 km, 65.0° (Epoch: 28 February)

Event Time Altitude Azimuth Distance (km) Brightness Sun altitude
Rises 17:52:48 0° 188° (S) 3,261 7.1 -9.4°
Reaches altitude 10° 17:55:22 10° 179° (S) 2,342 6.3 -9.8°
Maximum altitude 18:00:12 34° 116° (ESE) 1,274 4.3 -10.6°
Enters shadow 18:04:19 14° 56° (NE) 2,123 5.2 -11.2°
